Regional Weather Roundup
Issued by NWS

Home | Current Version | Previous Version | Text Only | Print | Product List | Glossary Off
Versions: 1 2 3 4 5 6 7 8 9 10 11 12 13 14 15 16 17 18 19 20 21 22 23 24 25 26 27 28 29 30 31 32 33 34 35 36 37 38 39 40 41 42 43 44 45 46 47 48 49 50

000
ASUS43 KLOT 280609
RWRIL

ILLINOIS REGIONAL WEATHER ROUNDUP
NATIONAL WEATHER SERVICE CHICAGO/ROMEOVILLE IL
100 AM CDT FRI JUL 28 2017

NOTE: "FAIR" INDICATES FEW OR NO CLOUDS BELOW 12,000 FEET WITH NO
SIGNIFICANT WEATHER AND/OR OBSTRUCTIONS TO VISIBILITY.

* THESE STATIONS ARE NOT UNDER NWS QUALITY CONTROL. THEY ALSO MAY NOT
  REPORT WEATHER SUCH AS PRECIPITATION OR FOG.

ILZ001-002-007-009-015-016-024-280700-
NORTHWEST ILLINOIS

CITY           SKY/WX    TMP DP  RH WIND       PRES   REMARKS
MOLINE         CLEAR     67  63  87 CALM      29.98R
6HR MIN TEMP:  66; 6HR MAX TEMP:  82;

STERLING*      CLEAR     64  60  87 N3        29.99S
SAVANNA*       CLEAR     64  58  81 NE6       30.00S
$$

ILZ003-004-008-010-011-017-018-280700-
NORTH CENTRAL ILLINOIS

CITY           SKY/WX    TMP DP  RH WIND       PRES   REMARKS
ROCKFORD       CLEAR     66  56  70 N8        29.99S
6HR MIN TEMP:  66; 6HR MAX TEMP:  81;

FREEPORT*      PTCLDY    63  56  78 N3        30.02S
ROCHELLE*      CLEAR     63  57  81 N7        29.98F
DE KALB*       PTCLDY    61  57  87 N7        29.98S
PERU*          CLEAR     62  55  75 N6        29.97S
$$

ILZ005-006-012>014-019>023-280700-
NORTHEAST ILLINOIS

CITY           SKY/WX    TMP DP  RH WIND       PRES   REMARKS
CHICAGO-OHARE  PTCLDY    70  61  73 N9        29.94S
6HR MIN TEMP:  70; 6HR MAX TEMP:  77;

CHICAGO-MIDWAY PTCLDY    72  64  76 N12       29.93S
6HR MIN TEMP:  72; 6HR MAX TEMP:  77;

AURORA         CLEAR     62  58  86 N5        29.96S
6HR MIN TEMP:  60; 6HR MAX TEMP:  78;

LANSING*       PTCLDY    70  64  82 N5        29.92F
JOLIET*        CLEAR     68  61  76 N6        29.93F
WAUKEGAN       CLEAR     69  62  78 N8        29.95F
6HR MIN TEMP:  69; 6HR MAX TEMP:  73;

DUPAGE AIRPORT CLEAR     62  59  90 N6        29.95S
6HR MIN TEMP:  61; 6HR MAX TEMP:  76;

WHEELING       CLEAR     69  64  84 N8        29.96S
6HR MIN TEMP:  69; 6HR MAX TEMP:  75;

MORRIS*        CLEAR     62  58  87 NW3       29.93F
ROMEOVILLE*    CLEAR     66  59  76 N9        29.93F
$$

LMZ740>746-280700-
SOUTHERN LAKE MICHIGAN

STATION/POSITION SKY/WX   TEMP    WIND        PRES    VSBY  WAVE
                          AIR SEA DIR/SP/G                  HT/PER
                          (F)     (DEG/KT/KT) (MB)    (MI)  (FT/S)
SOUTHERN BUOY              72 71   30/ 14/ 16 1013.8          4/ 6
WILMETTE HARBOR            72 72  360/ 14/ 17   N/A           5/ 6
HARRISON CRIB              74      20/ 12/ 14   N/A
BURNHAM HARBOR             72                   N/A
CALUMET HARBOR                    330/  5/  8 1013.0S
BURNS HARBOR               74      40/ 10/ 12 1013.5S
MICHIGAN CITY              73      30/ 12/ 13   N/A
MICHIGAN CITY 6N           74 74   60/ 12/ 16   N/A           5/ 6
ST. JOSEPH                 72 71   80/ 10/ 12 1013.1          3/ 6
$$

ILZ025>027-034>036-040-047-049-050-058-095>099-280700-
WEST-CENTRAL ILLINOIS

CITY           SKY/WX    TMP DP  RH WIND       PRES   REMARKS
QUINCY         MOCLDY    73  67  81 NE8       29.94F
GALESBURG*     PTCLDY    63  60  91 N6        29.98F
MACOMB*        MOCLDY    67  64  90 NE5       29.98F
JACKSONVILLE*  CLOUDY    73  67  80 N8        29.93S
PITTSFIELD*    CLEAR     75  67  75 NE9       29.94S
$$

ILZ028>032-037-038-041>044-048-051>054-059>061-280700-
CENTRAL ILLINOIS

CITY           SKY/WX    TMP DP  RH WIND       PRES   REMARKS
PONTIAC        MOCLDY    66  63  90 N6        29.94F
BLOOMINGTON    CLOUDY    69  59  70 N12       29.95S
DECATUR        PTCLDY    70  64  81 NE10      29.91S
PEORIA         CLEAR     69  60  73 NE3       29.95S
6HR MIN TEMP:  69; 6HR MAX TEMP:  82;

LACON*         CLEAR     64  58  80 N3        29.95S
LINCOLN*       CLEAR     69  66  89 N3        29.93S
SPRINGFIELD    PTCLDY    73  72  96 N6        29.92S
6HR MIN TEMP:  73; 6HR MAX TEMP:  84;

TAYLORVILLE    PTCLDY    70  69  96 N6        29.91F
6HR MIN TEMP:  70; 6HR MAX TEMP:  77;

$$

ILZ033-039-045-046-055>057-062-063-280700-
EAST-CENTRAL ILLINOIS

CITY           SKY/WX    TMP DP  RH WIND       PRES   REMARKS
CHAMPAIGN      CLEAR     69  65  86 N8        29.90F
RANTOUL*       PTCLDY    71  66  85 N10       29.91S
MATTOON        CLEAR     70  70 100 N8        29.88F FOG
PARIS*         MOCLDY    70  69  98 N5        29.89S
$$

ILZ079-100>102-280700-
SOUTHWEST ILLINOIS

CITY           SKY/WX    TMP DP  RH WIND       PRES   REMARKS
ALTON          CLOUDY    74  74 100 NW3       29.88F
BELLEVILLE     CLEAR     75  74  97 NW5       29.87F
CAHOKIA*       MOCLDY    77  73  87 CALM      29.87S
SPARTA*        CLOUDY    75  74  99 N6        29.87S
$$

ILZ064>066-069>071-074>076-080>082-084>086-088>090-092>094-280700-
SOUTH-CENTRAL ILLINOIS

CITY           SKY/WX    TMP DP  RH WIND       PRES   REMARKS
CARBONDALE     CLOUDY    76  75  97 W5        29.85F
6HR MIN TEMP:  76; 6HR MAX TEMP:  84;

CAIRO*         CLOUDY    78  77  94 SW5       29.85F HX  82
EFFINGHAM*     CLOUDY    75  75 100 N5        29.88F FOG
MARION         CLOUDY    77  77 100 N5        29.86F
MT. VERNON     CLOUDY    75  74  96 N7        29.86F
CENTRALIA*     CLOUDY    76  76 100 CALM      29.85F
SALEM*         CLOUDY    76  74  94 CALM      29.86F
METROPOLIS*    CLOUDY    79  77  92 SW8       29.86F HX  83
$$

ILZ067-068-072-073-078-083-087-091-280700-
SOUTHEAST ILLINOIS

CITY           SKY/WX    TMP DP  RH WIND       PRES   REMARKS
LAWRENCEVILLE  CLOUDY    75  75 100 N5        29.85F
FLORA*         CLOUDY    76  75  96 N3        29.86S
FAIRFIELD*     CLOUDY    76  76  99 CALM      29.85S
HARRISBURG*    MOCLDY    76  76  99 CALM      29.85S
ROBINSON*      CLOUDY    74  74 100 CALM      29.86F
CARMI*         HVY RAIN  75  74  99 W6        29.85S
$$

ABBREVIATIONS USED IN REMARKS
   TC - TEMPERATURE IN CELSIUS
  WCI - WIND CHILL INDEX
   HX - HEAT INDEX
  VSB - VISIBILITY
$$




USA.gov is the U.S. government's official web portal to all federal, state and local government web resources and services.